El Centro, CA

3:35 PM PDT on June 28, 2017 (GMT -0700)
El Centro Naval Air Facility

Weather History for KNJK - March, 2012

Change the Weather History Date:

Sunday, March 25, 2012

  Actual Average Record
Temperature  
Mean Temperature 68 °F -  
Max Temperature 81 °F 79 °F 91 °F (2014)
Min Temperature 57 °F 54 °F 45 °F (2009)
Cooling Degree Days 2    
Growing Degree Days 18 (Base 50)    
Moisture  
Dew Point 44 °F    
Average Humidity 47    
Maximum Humidity 72    
Minimum Humidity 25    
Precipitation  
Precipitation 0.00 in - - ()
Sea Level Pressure  
Sea Level Pressure 29.85 in    
Wind  
Wind Speed 9 mph (WSW)    
Max Wind Speed 36 mph    
Max Gust Speed 40 mph    
Visibility 10 miles    
Events      
Averages and records for this station are not official NWS values.
T = Trace of Precipitation, MM = Missing Value Source: NWS Daily Summary

Daily Weather History Graph

Daily Weather History Graph

Search for Another Location

Airport or City:

Trip Planner

Search our weather history database for the weather conditions in past years. The results will help you decide how hot, cold, wet, or windy it might be!

Date:

Astronomy

Mar. 25, 2012 Rise Set
Actual Time 6:39 AM PDT 6:58 PM PDT
Civil Twilight 6:14 AM PDT 7:23 PM PDT
Nautical Twilight 5:45 AM PDT 7:51 PM PDT
Astronomical Twilight 5:16 AM PDT 8:21 PM PDT
Moon 8:05 AM PDT (3/25) 10:04 PM PDT (3/25)
Length of Visible Light 13h 08m
Length of Day
12h 19m
Waxing Crescent, 9% of the Moon is Illuminated
Mar 25
Waxing Crescent
Mar 30
First Quarter
Apr 6
Full
Apr 13
Last Quarter
Apr 21
New

Hourly Weather History & Observations

Time (PDT) Temp. Dew Point Humidity Pressure Visibility Wind Dir Wind Speed Gust Speed Precip Events Conditions
12:56 AM 66.0 °F 45.0 °F 47% 29.84 in 10.0 mi West 5.8 mph - N/A   Clear
1:56 AM 64.9 °F 45.0 °F 48% 29.83 in 10.0 mi West 9.2 mph - N/A   Clear
2:56 AM 64.0 °F 45.0 °F 50% 29.81 in 10.0 mi Calm Calm - N/A   Clear
3:56 AM 57.9 °F 48.9 °F 72% 29.80 in 10.0 mi Calm Calm - N/A   Clear
4:56 AM 57.0 °F 48.0 °F 72% 29.81 in 10.0 mi Calm Calm - N/A   Clear
5:56 AM 57.9 °F 48.9 °F 72% 29.81 in 10.0 mi SSW 3.5 mph - N/A   Clear
6:56 AM 57.9 °F 46.9 °F 67% 29.84 in 10.0 mi WSW 3.5 mph - N/A   Clear
7:56 AM 61.0 °F 45.0 °F 56% 29.85 in 10.0 mi Calm Calm - N/A   Clear
8:56 AM 63.0 °F 46.0 °F 54% 29.85 in 10.0 mi Calm Calm - N/A   Clear
9:56 AM 66.0 °F 43.0 °F 43% 29.86 in 10.0 mi East 4.6 mph - N/A   Clear
10:56 AM 69.1 °F 46.0 °F 44% 29.86 in 10.0 mi ESE 5.8 mph - N/A   Clear
11:56 AM 73.0 °F 43.0 °F 34% 29.86 in 10.0 mi Calm Calm - N/A   Clear
12:56 PM 75.9 °F 42.1 °F 30% 29.84 in 10.0 mi ESE 5.8 mph - N/A   Clear
1:56 PM 78.1 °F 39.9 °F 25% 29.82 in 10.0 mi ENE 9.2 mph - N/A   Clear
2:56 PM 78.1 °F 39.9 °F 25% 29.81 in 10.0 mi West 11.5 mph - N/A   Clear
3:56 PM 77.0 °F 39.9 °F 26% 29.80 in 10.0 mi West 29.9 mph 34.5 mph N/A   Clear
4:56 PM 73.0 °F 43.0 °F 34% 29.81 in 10.0 mi WSW 25.3 mph 36.8 mph N/A   Clear
5:56 PM 70.0 °F 44.1 °F 39% 29.82 in 10.0 mi WSW 21.9 mph 29.9 mph N/A   Clear
6:56 PM 66.9 °F 45.0 °F 45% 29.83 in 10.0 mi WSW 23.0 mph 31.1 mph N/A   Clear
7:56 PM 66.0 °F 44.1 °F 45% 29.85 in 10.0 mi West 35.7 mph 40.3 mph N/A   Clear
8:56 PM 64.9 °F 45.0 °F 48% 29.91 in 10.0 mi West 21.9 mph 28.8 mph N/A   Overcast
9:56 PM 62.1 °F 41.0 °F 46% 29.94 in 10.0 mi West 28.8 mph 36.8 mph N/A   Partly Cloudy
10:56 PM 60.1 °F 41.0 °F 49% 29.96 in 10.0 mi WNW 24.2 mph 33.4 mph N/A   Clear
11:56 PM 59.0 °F 39.2 °F 48% 29.92 in 10.0 mi West 29.9 mph 36.8 mph N/A   Clear